Location: Newark
(14.6561°N, 91.2669°W)
Time: 16:35:02
(UTC+00:00)

ISS - Visible Passes

Search period start: 16 October 2019 00:00
Search period end: 26 October 2019 00:00
Orbit: 411 x 421 km, 51.6° (Epoch: 16 October)

Date Brightness Start Highest point End Pass type
(mag) Time Alt. Az. Time Alt. Az. Time Alt. Az.
16 Oct -0.3 00:51:03 10° WSW 00:51:46 11° SW 00:52:29 10° SW visible
20 Oct -1.0 10:53:54 10° S 10:56:30 21° SE 10:59:06 10° ENE visible
22 Oct -3.9 10:54:02 24° SW 10:55:56 75° NW 10:59:17 10° NNE visible
23 Oct -1.4 10:09:10 22° ENE 10:09:10 22° ENE 10:10:38 10° NE visible
24 Oct -1.5 10:56:56 13° NNW 10:56:56 13° NNW 10:57:45 10° N visible
